TimeEDT,TemperatureF,Dew PointF,Humidity,Sea Level PressureIn,VisibilityMPH,Wind Direction,Wind SpeedMPH,Gust SpeedMPH,PrecipitationIn,Events,Conditions,WindDirDegrees,DateUTC
12:53 AM,43.0,28.9,58,29.90,10.0,WNW,8.1,-,N/A,,Overcast,300,2012-11-03 04:53:00
1:53 AM,41.0,28.9,62,29.90,10.0,WNW,5.8,-,N/A,,Mostly Cloudy,290,2012-11-03 05:53:00
2:53 AM,42.1,28.9,60,29.91,10.0,WNW,6.9,-,N/A,,Overcast,290,2012-11-03 06:53:00
3:53 AM,41.0,28.9,62,29.92,10.0,WNW,9.2,-,N/A,,Overcast,290,2012-11-03 07:53:00
4:53 AM,39.9,28.0,63,29.93,10.0,West,6.9,-,N/A,,Overcast,280,2012-11-03 08:53:00
5:53 AM,39.9,28.0,63,29.94,10.0,WNW,6.9,-,N/A,,Overcast,290,2012-11-03 09:53:00
6:53 AM,41.0,27.0,57,29.96,10.0,WNW,9.2,-,N/A,,Overcast,290,2012-11-03 10:53:00
7:53 AM,39.9,28.0,63,29.98,10.0,West,6.9,-,N/A,,Overcast,280,2012-11-03 11:53:00
8:53 AM,41.0,28.9,62,30.00,10.0,West,9.2,-,N/A,,Overcast,280,2012-11-03 12:53:00
9:53 AM,43.0,30.0,60,30.00,10.0,WNW,8.1,-,N/A,,Overcast,290,2012-11-03 13:53:00
10:53 AM,43.0,28.9,58,30.01,10.0,WNW,10.4,18.4,N/A,,Overcast,300,2012-11-03 14:53:00
11:53 AM,45.0,28.9,53,30.00,10.0,WNW,13.8,19.6,N/A,,Overcast,300,2012-11-03 15:53:00
12:53 PM,45.0,30.0,56,29.99,10.0,NW,10.4,-,N/A,,Overcast,310,2012-11-03 16:53:00
1:53 PM,45.0,28.9,53,30.00,10.0,NW,15.0,24.2,N/A,,Overcast,310,2012-11-03 17:53:00
2:53 PM,46.0,30.0,54,30.00,10.0,WNW,8.1,-,N/A,,Overcast,300,2012-11-03 18:53:00
3:53 PM,46.0,28.9,51,30.00,10.0,NW,12.7,20.7,N/A,,Overcast,310,2012-11-03 19:53:00
4:53 PM,45.0,30.0,56,30.01,10.0,NW,11.5,-,N/A,,Overcast,310,2012-11-03 20:53:00
5:53 PM,45.0,28.9,53,30.01,10.0,WNW,12.7,18.4,N/A,,Overcast,300,2012-11-03 21:53:00
6:53 PM,44.1,30.0,58,30.03,10.0,WNW,9.2,-,N/A,,Overcast,290,2012-11-03 22:53:00
7:53 PM,44.1,30.0,58,30.04,10.0,WNW,13.8,-,N/A,,Overcast,300,2012-11-03 23:53:00
8:53 PM,43.0,28.9,58,30.04,10.0,WNW,9.2,-,N/A,,Overcast,300,2012-11-04 00:53:00
9:53 PM,43.0,27.0,53,30.05,10.0,NW,10.4,20.7,N/A,,Overcast,310,2012-11-04 01:53:00
10:53 PM,42.1,27.0,55,30.06,10.0,WNW,8.1,-,N/A,,Overcast,300,2012-11-04 02:53:00
11:53 PM,42.1,27.0,55,30.06,10.0,WNW,6.9,-,N/A,,Overcast,300,2012-11-04 03:53:00